Location: Newark
(14.1000°N, 87.2167°W)
Time: 22:56:13
(UTC+00:00)

Hubble Space Telescope - Pass Details

Date: 26 July 2019
Orbit: 536 x 540 km, 28.5° (Epoch: 18 August)

Event Time Altitude Azimuth Distance (km) Brightness Sun altitude
Exits shadow 08:51:23 13° 66° (ENE) 1,581 3.8 -35.2°
Drops below altitude 10° 08:51:54 10° 66° (ENE) 1,779 4.2 -35.1°
Sets 08:54:10 0° 65° (ENE) 2,669 5.3 -34.7°
